This is the latest recevied weather packets stored in our database for station/object N7WGJ. If no packets are shown the sender has not sent any weather packets the latest 10 day(s).
| Time | Temp. | Humidity | Pressure | Rain* | Wind** | Luminosity | Snow |
|---|---|---|---|---|---|---|---|
| 1777670500 | 21.67° C | 55% | 1016.1 hPa | 0 mm | - | - | - |
| 1777669899 | 22.22° C | 54% | 1016.1 hPa | 0 mm | - | - | - |
| 1777669310 | 21.67° C | 54% | 1016.1 hPa | 0 mm | - | - | - |
| 1777668684 | 21.67° C | 55% | 1016.1 hPa | 0 mm | - | - | - |
| 1777668088 | 21.11° C | 53% | 1016.2 hPa | 0 mm | - | - | - |
| 1777667485 | 21.11° C | 54% | 1016.2 hPa | 0 mm | - | - | - |
| 1777666889 | 21.11° C | 55% | 1016.3 hPa | 0 mm | - | - | - |
| 1777666291 | 21.11° C | 56% | 1016.4 hPa | 0 mm | - | - | - |
| 1777665713 | 20.56° C | 55% | 1016.4 hPa | 0 mm | - | - | - |
| 1777665087 | 20.56° C | 54% | 1016.4 hPa | 0 mm | - | - | - |
| 1777664500 | 20° C | 54% | 1016.4 hPa | 0 mm | - | - | - |
| 1777663899 | 19.44° C | 60% | 1016.5 hPa | 0 mm | - | - | - |
| 1777663301 | 19.44° C | 61% | 1016.5 hPa | 0 mm | - | - | - |
| 1777662702 | 18.89° C | 61% | 1016.6 hPa | 0 mm | - | - | - |
| 1777662097 | 18.89° C | 59% | 1016.8 hPa | 0 mm | - | - | - |
| 1777661493 | 18.89° C | 60% | 1017 hPa | 0 mm | - | - | - |
| 1777660893 | 18.33° C | 59% | 1017.2 hPa | 0 mm | - | - | - |
| 1777660295 | 18.33° C | 60% | 1017.1 hPa | 0 mm | - | - | - |
| 1777659692 | 17.78° C | 61% | 1017.1 hPa | 0 mm | - | - | - |
| 1777659093 | 17.78° C | 63% | 1017.2 hPa | 0 mm | - | - | - |
| 1777658494 | 17.78° C | 63% | 1017.2 hPa | 0 mm | - | - | - |
| 1777657889 | 17.22° C | 66% | 1017.3 hPa | 0 mm | - | - | - |
| 1777657288 | 17.22° C | 66% | 1017.3 hPa | 0 mm | - | - | - |
| 1777656692 | 17.22° C | 68% | 1017.3 hPa | 0 mm | - | - | - |
| 1777656096 | 17.22° C | 71% | 1017.3 hPa | 0 mm | - | - | - |
* Rain latest hour (hover to see other rain measurements)
** Current wind speed in m/s (hover to see current wind gust speed)